BLF1050 BIRK-EKVG

Flight info

Callsign BLF1050
Flight time 1h 38m
Altitude 35000
Route METIL Y194 INACO DCT MAGNI
Aircraft CRJ7/M-SDFGIRWY/S

Departure

Time 2026-04-21 16:29
Airport Reykjavík Domestic Airport (BIRK)

Arrival

Time 2026-04-21 18:08
Airport Vágar Airport (EKVG)
Time Latitude Longitude Altitude Speed Heading
2026-04-21 15:39 64.13174 -21.94205 40 ft 0 kts 354°
2026-04-21 16:22 64.13175 -21.94205 40 ft 0 kts 349°
2026-04-21 16:22 64.13176 -21.94206 40 ft 0 kts 333°
2026-04-21 16:22 64.13176 -21.94208 40 ft 0 kts 319°
2026-04-21 16:23 64.13177 -21.94211 40 ft 0 kts 293°
2026-04-21 16:23 64.13177 -21.94215 40 ft 1 kts 265°
2026-04-21 16:23 64.13173 -21.94226 40 ft 2 kts 219°
2026-04-21 16:23 64.13158 -21.94221 40 ft 4 kts 142°
2026-04-21 16:24 64.13145 -21.94107 40 ft 11 kts 87°
2026-04-21 16:24 64.13150 -21.93988 41 ft 6 kts 83°
2026-04-21 16:24 64.13153 -21.93924 45 ft 4 kts 83°
2026-04-21 16:24 64.13132 -21.93814 47 ft 10 kts 156°
2026-04-21 16:25 64.13054 -21.93785 47 ft 14 kts 175°
2026-04-21 16:25 64.12940 -21.93765 47 ft 19 kts 175°
2026-04-21 16:25 64.12808 -21.93739 42 ft 22 kts 175°
2026-04-21 16:25 64.12671 -21.93711 39 ft 21 kts 175°
2026-04-21 16:26 64.12528 -21.93683 34 ft 18 kts 175°
2026-04-21 16:26 64.12416 -21.93666 30 ft 19 kts 174°
2026-04-21 16:26 64.12273 -21.93636 26 ft 22 kts 175°
2026-04-21 16:26 64.12154 -21.93641 24 ft 12 kts 198°
2026-04-21 16:27 64.12116 -21.93593 24 ft 6 kts 45°
2026-04-21 16:27 64.12165 -21.93617 24 ft 10 kts 346°
2026-04-21 16:27 64.12191 -21.93623 24 ft 0 kts 356°
2026-04-21 16:28 64.12222 -21.93627 25 ft 7 kts 356°
2026-04-21 16:28 64.12260 -21.93632 26 ft 9 kts 356°
2026-04-21 16:28 64.12339 -21.93643 28 ft 14 kts 356°
2026-04-21 16:28 64.12641 -21.93708 38 ft 79 kts 355°
2026-04-21 16:29 64.13408 -21.93845 41 ft 140 kts 355°
2026-04-21 16:29 64.14424 -21.93958 472 ft 148 kts 357°
2026-04-21 16:29 64.15516 -21.93940 855 ft 166 kts 358°
2026-04-21 16:29 64.16689 -21.93897 1417 ft 172 kts 359°
2026-04-21 16:30 64.17952 -21.93865 1816 ft 187 kts 358°
2026-04-21 16:30 64.19273 -21.93861 2347 ft 196 kts 358°
2026-04-21 16:30 64.20683 -21.93878 2776 ft 210 kts 359°
2026-04-21 16:30 64.22103 -21.93125 3452 ft 214 kts 31°
2026-04-21 16:31 64.23049 -21.90526 4348 ft 217 kts 66°
2026-04-21 16:31 64.23281 -21.87080 5286 ft 224 kts 98°
2026-04-21 16:31 64.22632 -21.83811 6185 ft 231 kts 133°
2026-04-21 16:31 64.21371 -21.81454 7022 ft 240 kts 146°
2026-04-21 16:32 64.19937 -21.79223 7595 ft 257 kts 147°
2026-04-21 16:32 64.18382 -21.76939 8045 ft 273 kts 148°
2026-04-21 16:32 64.16766 -21.74644 8688 ft 278 kts 149°
2026-04-21 16:32 64.15104 -21.72312 9428 ft 282 kts 149°
2026-04-21 16:33 64.13425 -21.69965 10190 ft 283 kts 149°
2026-04-21 16:33 64.11738 -21.67596 10937 ft 284 kts 150°
2026-04-21 16:33 64.10035 -21.65260 11675 ft 285 kts 154°
2026-04-21 16:33 64.08235 -21.63251 12193 ft 296 kts 157°
2026-04-21 16:34 64.06273 -21.61260 12269 ft 321 kts 159°
2026-04-21 16:34 64.04146 -21.59166 12434 ft 343 kts 159°
2026-04-21 16:34 64.01892 -21.56991 12693 ft 360 kts 159°
2026-04-21 16:34 63.99674 -21.54140 13125 ft 373 kts 140°
2026-04-21 16:35 63.98154 -21.49428 13780 ft 378 kts 115°
2026-04-21 16:35 63.97259 -21.43774 14444 ft 381 kts 106°
2026-04-21 16:35 63.96730 -21.37775 14753 ft 393 kts 94°
2026-04-21 16:35 63.96640 -21.31540 15315 ft 396 kts 90°
2026-04-21 16:36 63.96629 -21.25245 15868 ft 398 kts 90°
2026-04-21 16:36 63.96599 -21.18921 16413 ft 401 kts 90°
2026-04-21 16:36 63.96501 -21.12553 16952 ft 404 kts 92°
2026-04-21 16:36 63.96361 -21.06158 17465 ft 406 kts 92°
2026-04-21 16:37 63.96228 -20.99723 17951 ft 408 kts 91°
2026-04-21 16:37 63.96090 -20.93239 18432 ft 411 kts 91°
2026-04-21 16:37 63.95948 -20.86715 18904 ft 413 kts 91°
2026-04-21 16:37 63.95805 -20.80256 19334 ft 415 kts 91°
2026-04-21 16:38 63.95656 -20.73667 19774 ft 418 kts 91°
2026-04-21 16:38 63.95505 -20.67050 20192 ft 420 kts 91°
2026-04-21 16:38 63.95347 -20.60386 20585 ft 422 kts 91°
2026-04-21 16:38 63.95186 -20.53696 20972 ft 425 kts 91°
2026-04-21 16:39 63.95023 -20.46943 21348 ft 427 kts 91°
2026-04-21 16:39 63.94851 -20.40176 21706 ft 429 kts 91°
2026-04-21 16:39 63.94685 -20.33384 22057 ft 431 kts 91°
2026-04-21 16:39 63.94494 -20.26557 22388 ft 433 kts 91°
2026-04-21 16:40 63.94310 -20.19696 22708 ft 435 kts 91°
2026-04-21 16:40 63.94129 -20.12902 23033 ft 437 kts 91°
2026-04-21 16:40 63.93942 -20.05971 23338 ft 439 kts 91°
2026-04-21 16:40 63.93751 -19.99037 23632 ft 440 kts 91°
2026-04-21 16:41 63.93553 -19.92066 23933 ft 442 kts 91°
2026-04-21 16:41 63.93349 -19.85078 24217 ft 444 kts 91°
2026-04-21 16:41 63.93143 -19.78073 24499 ft 445 kts 92°
2026-04-21 16:41 63.92935 -19.71100 24699 ft 448 kts 91°
2026-04-21 16:42 63.92714 -19.64034 25017 ft 448 kts 91°
2026-04-21 16:42 63.92500 -19.56988 25350 ft 447 kts 91°
2026-04-21 16:42 63.92278 -19.49942 25699 ft 445 kts 91°
2026-04-21 16:42 63.92055 -19.42922 26034 ft 444 kts 91°
2026-04-21 16:43 63.91828 -19.35934 26365 ft 442 kts 91°
2026-04-21 16:43 63.91597 -19.28962 26688 ft 441 kts 91°
2026-04-21 16:43 63.91365 -19.22028 26982 ft 440 kts 91°
2026-04-21 16:43 63.91130 -19.15087 27317 ft 438 kts 91°
2026-04-21 16:44 63.90895 -19.08222 27672 ft 435 kts 91°
2026-04-21 16:44 63.90659 -19.01392 27998 ft 433 kts 91°
2026-04-21 16:44 63.90421 -18.94654 28326 ft 431 kts 91°
2026-04-21 16:44 63.90178 -18.87895 28645 ft 428 kts 91°
2026-04-21 16:45 63.89933 -18.81171 28969 ft 426 kts 91°
2026-04-21 16:45 63.89688 -18.74482 29292 ft 423 kts 91°
2026-04-21 16:45 63.89442 -18.67841 29587 ft 420 kts 91°
2026-04-21 16:45 63.89193 -18.61237 29888 ft 418 kts 91°
2026-04-21 16:46 63.88942 -18.54679 30187 ft 415 kts 91°
2026-04-21 16:46 63.88694 -18.48252 30477 ft 412 kts 92°
2026-04-21 16:46 63.88438 -18.41716 30775 ft 409 kts 92°
2026-04-21 16:46 63.88188 -18.35363 31074 ft 406 kts 92°
2026-04-21 16:47 63.87933 -18.28990 31348 ft 404 kts 92°
2026-04-21 16:47 63.87677 -18.22665 31597 ft 401 kts 92°
2026-04-21 16:47 63.87419 -18.16366 31845 ft 399 kts 92°
2026-04-21 16:47 63.87161 -18.10107 32088 ft 397 kts 92°
2026-04-21 16:48 63.86901 -18.03883 32330 ft 395 kts 92°
2026-04-21 16:48 63.86640 -17.97716 32578 ft 392 kts 92°
2026-04-21 16:48 63.86379 -17.91572 32825 ft 389 kts 92°
2026-04-21 16:48 63.86120 -17.85550 33069 ft 387 kts 92°
2026-04-21 16:49 63.85857 -17.79509 33315 ft 383 kts 92°
2026-04-21 16:49 63.85593 -17.73506 33561 ft 380 kts 92°
2026-04-21 16:49 63.85329 -17.67546 33807 ft 377 kts 92°
2026-04-21 16:49 63.85067 -17.61668 34051 ft 373 kts 92°
2026-04-21 16:50 63.84807 -17.55839 34272 ft 370 kts 92°
2026-04-21 16:50 63.84534 -17.50057 34490 ft 367 kts 93°
2026-04-21 16:50 63.84255 -17.44328 34708 ft 364 kts 92°
2026-04-21 16:50 63.83990 -17.38659 34925 ft 360 kts 92°
2026-04-21 16:51 63.83739 -17.33107 35139 ft 357 kts 92°
2026-04-21 16:51 63.83478 -17.27542 35355 ft 353 kts 92°
2026-04-21 16:51 63.83221 -17.22028 35500 ft 352 kts 92°
2026-04-21 16:52 63.82690 -17.10950 35603 ft 355 kts 92°
2026-04-21 16:52 63.82147 -16.99779 35621 ft 359 kts 92°
2026-04-21 16:53 63.81584 -16.88454 35631 ft 364 kts 92°
2026-04-21 16:53 63.81007 -16.76973 35630 ft 370 kts 92°
2026-04-21 16:54 63.80393 -16.65322 35635 ft 376 kts 95°
2026-04-21 16:54 63.78948 -16.53780 35637 ft 386 kts 105°
2026-04-21 16:55 63.77088 -16.42348 35633 ft 391 kts 105°
2026-04-21 16:55 63.75291 -16.30691 35629 ft 395 kts 104°
2026-04-21 16:56 63.73504 -16.18938 35625 ft 395 kts 104°
2026-04-21 16:56 63.71713 -16.07227 35623 ft 395 kts 104°
2026-04-21 16:57 63.69922 -15.95586 35626 ft 394 kts 104°
2026-04-21 16:57 63.68117 -15.83918 35617 ft 394 kts 104°
2026-04-21 16:58 63.66295 -15.72261 35618 ft 394 kts 104°
2026-04-21 16:58 63.64474 -15.60629 35613 ft 394 kts 104°
2026-04-21 16:59 63.62639 -15.49012 35612 ft 394 kts 104°
2026-04-21 16:59 63.60795 -15.37406 35611 ft 394 kts 104°
2026-04-21 17:00 63.58958 -15.25897 35611 ft 394 kts 104°
2026-04-21 17:00 63.57396 -15.16201 35611 ft 394 kts 105°
2026-04-21 17:01 63.55218 -15.02740 35612 ft 394 kts 105°
2026-04-21 17:01 63.53333 -14.91178 35612 ft 395 kts 105°
2026-04-21 17:02 63.51437 -14.79620 35612 ft 395 kts 105°
2026-04-21 17:02 63.49533 -14.68071 35613 ft 395 kts 105°
2026-04-21 17:03 63.47631 -14.56628 35603 ft 395 kts 105°
2026-04-21 17:03 63.45707 -14.45091 35597 ft 396 kts 105°
2026-04-21 17:04 63.43765 -14.33559 35596 ft 396 kts 105°
2026-04-21 17:04 63.41823 -14.22059 35595 ft 396 kts 105°
2026-04-21 17:05 63.39877 -14.10641 35595 ft 396 kts 106°
2026-04-21 17:05 63.37913 -13.99168 35595 ft 396 kts 106°
2026-04-21 17:06 63.35942 -13.87699 35594 ft 396 kts 106°
2026-04-21 17:06 63.33956 -13.76261 35593 ft 396 kts 106°
2026-04-21 17:07 63.32300 -13.66746 35594 ft 396 kts 107°
2026-04-21 17:07 63.29962 -13.53398 35602 ft 396 kts 107°
2026-04-21 17:08 63.27962 -13.42054 35604 ft 397 kts 107°
2026-04-21 17:08 63.25937 -13.30645 35603 ft 397 kts 107°
2026-04-21 17:09 63.22873 -13.13518 35604 ft 398 kts 107°
2026-04-21 17:09 63.20821 -13.02122 35603 ft 398 kts 107°
2026-04-21 17:10 63.18775 -12.90800 35603 ft 398 kts 108°
2026-04-21 17:10 63.16696 -12.79412 35601 ft 399 kts 108°
2026-04-21 17:11 63.14605 -12.68007 35596 ft 400 kts 108°
2026-04-21 17:11 63.12511 -12.56622 35595 ft 399 kts 108°
2026-04-21 17:12 63.10758 -12.47182 35595 ft 400 kts 108°
2026-04-21 17:12 63.08293 -12.33962 35595 ft 400 kts 108°
2026-04-21 17:13 63.06512 -12.24439 35595 ft 400 kts 108°
2026-04-21 17:13 63.04388 -12.13177 35602 ft 401 kts 109°
2026-04-21 17:14 63.02239 -12.01828 35604 ft 401 kts 109°
2026-04-21 17:14 63.00080 -11.90490 35604 ft 401 kts 109°
2026-04-21 17:15 62.97908 -11.79169 35603 ft 401 kts 109°
2026-04-21 17:15 62.95742 -11.67928 35607 ft 401 kts 109°
2026-04-21 17:16 62.93553 -11.56643 35612 ft 401 kts 109°
2026-04-21 17:16 62.91354 -11.45365 35613 ft 402 kts 109°
2026-04-21 17:17 62.89147 -11.34094 35613 ft 402 kts 109°
2026-04-21 17:17 62.86927 -11.22836 35617 ft 402 kts 110°
2026-04-21 17:18 62.84700 -11.11595 35628 ft 402 kts 110°
2026-04-21 17:18 62.82459 -11.00353 35620 ft 403 kts 110°
2026-04-21 17:19 62.80207 -10.89114 35620 ft 404 kts 110°
2026-04-21 17:19 62.79068 -10.83454 35282 ft 408 kts 110°
2026-04-21 17:19 62.77920 -10.77776 34894 ft 407 kts 110°
2026-04-21 17:20 62.76795 -10.72201 34514 ft 407 kts 110°
2026-04-21 17:20 62.75653 -10.66566 34130 ft 406 kts 110°
2026-04-21 17:20 62.74504 -10.60941 33749 ft 405 kts 110°
2026-04-21 17:20 62.73360 -10.55328 33366 ft 404 kts 110°
2026-04-21 17:21 62.72215 -10.49719 32979 ft 404 kts 110°
2026-04-21 17:21 62.71068 -10.44124 32598 ft 404 kts 110°
2026-04-21 17:21 62.69912 -10.38518 32216 ft 406 kts 110°
2026-04-21 17:21 62.68754 -10.32891 31832 ft 408 kts 110°
2026-04-21 17:22 62.67585 -10.27236 31446 ft 410 kts 110°
2026-04-21 17:22 62.66405 -10.21541 31060 ft 413 kts 110°
2026-04-21 17:22 62.65234 -10.15905 30672 ft 415 kts 111°
2026-04-21 17:22 62.64039 -10.10175 30280 ft 417 kts 111°
2026-04-21 17:23 62.62835 -10.04414 29886 ft 419 kts 111°
2026-04-21 17:23 62.61626 -9.98660 29491 ft 420 kts 111°
2026-04-21 17:23 62.60416 -9.92905 29094 ft 416 kts 111°
2026-04-21 17:23 62.59215 -9.87217 28699 ft 412 kts 111°
2026-04-21 17:24 62.58026 -9.81595 28306 ft 409 kts 111°
2026-04-21 17:24 62.56839 -9.75985 27914 ft 406 kts 111°
2026-04-21 17:24 62.55661 -9.70451 27527 ft 403 kts 111°
2026-04-21 17:24 62.54490 -9.64948 27141 ft 401 kts 111°
2026-04-21 17:25 62.53336 -9.59543 26762 ft 399 kts 111°
2026-04-21 17:25 62.52171 -9.54108 26380 ft 397 kts 111°
2026-04-21 17:25 62.51011 -9.48706 26001 ft 395 kts 111°
2026-04-21 17:25 62.49849 -9.43308 25621 ft 393 kts 111°
2026-04-21 17:26 62.48695 -9.37969 25243 ft 392 kts 111°
2026-04-21 17:26 62.47541 -9.32633 24873 ft 391 kts 111°
2026-04-21 17:26 62.46387 -9.27315 24496 ft 389 kts 111°
2026-04-21 17:26 62.45236 -9.22024 24123 ft 388 kts 112°
2026-04-21 17:27 62.44087 -9.16763 23753 ft 383 kts 112°
2026-04-21 17:27 62.42979 -9.11688 23391 ft 373 kts 112°
2026-04-21 17:27 62.41878 -9.06674 23036 ft 365 kts 112°
2026-04-21 17:27 62.40804 -9.01775 22678 ft 357 kts 112°
2026-04-21 17:28 62.39748 -8.96983 22332 ft 351 kts 111°
2026-04-21 17:28 62.38705 -8.92259 21990 ft 345 kts 111°
2026-04-21 17:28 62.37683 -8.87637 21656 ft 339 kts 112°
2026-04-21 17:28 62.36675 -8.83072 21326 ft 334 kts 112°
2026-04-21 17:29 62.35679 -8.78585 21003 ft 330 kts 112°
2026-04-21 17:29 62.34705 -8.74214 20687 ft 326 kts 112°
2026-04-21 17:29 62.33726 -8.69836 20368 ft 323 kts 112°
2026-04-21 17:29 62.32752 -8.65467 20062 ft 324 kts 112°
2026-04-21 17:30 62.31771 -8.61082 19750 ft 324 kts 112°
2026-04-21 17:30 62.30793 -8.56719 19444 ft 324 kts 112°
2026-04-21 17:30 62.29814 -8.52370 19137 ft 323 kts 112°
2026-04-21 17:30 62.28833 -8.48027 18831 ft 322 kts 112°
2026-04-21 17:31 62.27853 -8.43691 18522 ft 322 kts 112°
2026-04-21 17:31 62.26876 -8.39359 18221 ft 322 kts 112°
2026-04-21 17:31 62.25896 -8.35025 17916 ft 322 kts 112°
2026-04-21 17:31 62.24915 -8.30708 17610 ft 321 kts 112°
2026-04-21 17:32 62.23945 -8.26456 17313 ft 321 kts 112°
2026-04-21 17:32 62.22965 -8.22162 17010 ft 321 kts 112°
2026-04-21 17:32 62.21983 -8.17866 16705 ft 320 kts 113°
2026-04-21 17:32 62.21004 -8.13586 16405 ft 320 kts 113°
2026-04-21 17:33 62.20021 -8.09302 16106 ft 319 kts 113°
2026-04-21 17:33 62.19043 -8.05035 15798 ft 319 kts 113°
2026-04-21 17:33 62.18062 -8.00775 15496 ft 316 kts 113°
2026-04-21 17:33 62.17092 -7.96579 15193 ft 312 kts 113°
2026-04-21 17:34 62.16136 -7.92449 14899 ft 308 kts 113°
2026-04-21 17:34 62.15190 -7.88365 14604 ft 304 kts 113°
2026-04-21 17:34 62.14266 -7.84388 14318 ft 301 kts 113°
2026-04-21 17:34 62.13338 -7.80401 14029 ft 298 kts 113°
2026-04-21 17:35 62.12434 -7.76445 13744 ft 295 kts 113°
2026-04-21 17:35 62.11483 -7.72570 13451 ft 293 kts 118°
2026-04-21 17:35 62.10366 -7.68931 13178 ft 292 kts 121°
2026-04-21 17:35 62.09199 -7.65398 12900 ft 290 kts 123°
2026-04-21 17:36 62.08003 -7.61940 12624 ft 288 kts 124°
2026-04-21 17:36 62.06768 -7.58592 12348 ft 287 kts 127°
2026-04-21 17:36 62.05491 -7.55392 12078 ft 285 kts 129°
2026-04-21 17:36 62.04166 -7.52250 11806 ft 283 kts 129°
2026-04-21 17:37 62.02846 -7.49139 11536 ft 281 kts 129°
2026-04-21 17:37 62.01556 -7.46094 11272 ft 279 kts 130°
2026-04-21 17:37 62.00670 -7.44034 11093 ft 278 kts 130°
2026-04-21 17:37 61.98952 -7.40025 10743 ft 276 kts 130°
2026-04-21 17:38 61.97665 -7.36980 10482 ft 277 kts 130°
2026-04-21 17:38 61.96379 -7.33922 10221 ft 277 kts 129°
2026-04-21 17:38 61.95093 -7.30870 9961 ft 277 kts 130°
2026-04-21 17:38 61.93802 -7.27847 9702 ft 277 kts 130°
2026-04-21 17:39 61.92512 -7.24812 9442 ft 276 kts 130°
2026-04-21 17:39 61.91221 -7.21789 9182 ft 276 kts 130°
2026-04-21 17:39 61.89931 -7.18771 8923 ft 276 kts 130°
2026-04-21 17:39 61.88630 -7.15760 8540 ft 278 kts 131°
2026-04-21 17:40 61.87326 -7.12834 8129 ft 276 kts 131°
2026-04-21 17:40 61.86024 -7.09888 7752 ft 272 kts 131°
2026-04-21 17:40 61.84741 -7.06989 7438 ft 266 kts 131°
2026-04-21 17:40 61.83576 -7.04018 7176 ft 259 kts 122°
2026-04-21 17:41 61.82770 -7.00686 6959 ft 251 kts 107°
2026-04-21 17:41 61.82414 -6.97143 6768 ft 242 kts 93°
2026-04-21 17:41 61.82459 -6.93656 6584 ft 234 kts 80°
2026-04-21 17:41 61.82843 -6.90337 6332 ft 232 kts 68°
2026-04-21 17:42 61.83535 -6.87292 6083 ft 232 kts 56°
2026-04-21 17:42 61.84707 -6.85037 5828 ft 226 kts 19°
2026-04-21 17:42 61.86222 -6.84741 5615 ft 222 kts 356°
2026-04-21 17:42 61.87771 -6.85039 5376 ft 223 kts 353°
2026-04-21 17:43 61.89316 -6.85482 5149 ft 224 kts 351°
2026-04-21 17:43 61.90869 -6.86043 4916 ft 229 kts 349°
2026-04-21 17:43 61.92424 -6.86683 4661 ft 226 kts 348°
2026-04-21 17:43 61.93967 -6.87326 4405 ft 224 kts 348°
2026-04-21 17:44 61.95460 -6.87963 4238 ft 218 kts 344°
2026-04-21 17:44 61.96669 -6.89672 4204 ft 204 kts 311°
2026-04-21 17:44 61.97492 -6.92028 4184 ft 192 kts 303°
2026-04-21 17:44 61.98200 -6.94410 4087 ft 193 kts 307°
2026-04-21 17:45 61.98903 -6.96880 3791 ft 196 kts 296°
2026-04-21 17:45 61.99460 -6.99471 3471 ft 188 kts 294°
2026-04-21 17:45 61.99982 -7.01954 3205 ft 177 kts 296°
2026-04-21 17:45 62.00497 -7.04228 2955 ft 165 kts 297°
2026-04-21 17:46 62.01002 -7.06340 2721 ft 155 kts 298°
2026-04-21 17:46 62.01501 -7.08333 2488 ft 152 kts 299°
2026-04-21 17:46 62.01996 -7.10311 2259 ft 151 kts 299°
2026-04-21 17:46 62.02489 -7.12280 2023 ft 150 kts 299°
2026-04-21 17:47 62.02965 -7.14185 1781 ft 140 kts 300°
2026-04-21 17:47 62.03404 -7.15933 1540 ft 129 kts 300°
2026-04-21 17:47 62.03835 -7.17638 1365 ft 133 kts 300°
2026-04-21 17:47 62.04264 -7.19363 1160 ft 132 kts 300°
2026-04-21 17:48 62.04565 -7.20578 1016 ft 144 kts 300°
2026-04-21 17:48 62.05172 -7.23000 671 ft 134 kts 299°
2026-04-21 17:48 62.05630 -7.24809 448 ft 138 kts 300°
2026-04-21 17:48 62.06059 -7.26516 272 ft 123 kts 301°
2026-04-21 17:49 62.06493 -7.28191 512 ft 134 kts 301°
2026-04-21 17:49 62.06924 -7.29935 991 ft 130 kts 296°
2026-04-21 17:49 62.07217 -7.31713 1468 ft 127 kts 289°
2026-04-21 17:49 62.07466 -7.33584 1779 ft 134 kts 288°
2026-04-21 17:50 62.07717 -7.35448 2210 ft 130 kts 289°
2026-04-21 17:50 62.08016 -7.37253 2583 ft 131 kts 292°
2026-04-21 17:50 62.08379 -7.39090 2883 ft 137 kts 295°
2026-04-21 17:50 62.08760 -7.40989 3191 ft 142 kts 288°
2026-04-21 17:51 62.08875 -7.43145 3435 ft 154 kts 275°
2026-04-21 17:51 62.08909 -7.45605 3525 ft 180 kts 266°
2026-04-21 17:51 62.08404 -7.48299 3587 ft 210 kts 243°
2026-04-21 17:51 62.07673 -7.51175 3606 ft 226 kts 242°
2026-04-21 17:52 62.06877 -7.54188 3588 ft 229 kts 241°
2026-04-21 17:52 62.06097 -7.57048 3579 ft 219 kts 240°
2026-04-21 17:52 62.05335 -7.59807 3623 ft 212 kts 240°
2026-04-21 17:52 62.04555 -7.62633 3658 ft 236 kts 240°
2026-04-21 17:53 62.03678 -7.65799 3685 ft 261 kts 238°
2026-04-21 17:53 62.02339 -7.68605 3709 ft 284 kts 210°
2026-04-21 17:53 62.00485 -7.69793 3715 ft 272 kts 182°
2026-04-21 17:53 61.98704 -7.69048 3716 ft 255 kts 153°
2026-04-21 17:54 61.97260 -7.66951 3712 ft 250 kts 141°
2026-04-21 17:54 61.95912 -7.64652 3774 ft 246 kts 140°
2026-04-21 17:54 61.94616 -7.62349 3880 ft 240 kts 139°
2026-04-21 17:54 61.93349 -7.60047 3942 ft 240 kts 138°
2026-04-21 17:55 61.92091 -7.57692 3970 ft 242 kts 134°
2026-04-21 17:55 61.91123 -7.54825 3986 ft 243 kts 120°
2026-04-21 17:55 61.90252 -7.51715 3988 ft 246 kts 119°
2026-04-21 17:55 61.89393 -7.48554 3995 ft 249 kts 118°
2026-04-21 17:56 61.88536 -7.45344 4004 ft 249 kts 118°
2026-04-21 17:56 61.87694 -7.42171 4003 ft 245 kts 118°
2026-04-21 17:56 61.86878 -7.39073 3993 ft 242 kts 118°
2026-04-21 17:56 61.86064 -7.35976 3996 ft 239 kts 118°
2026-04-21 17:57 61.85255 -7.32901 3994 ft 239 kts 118°
2026-04-21 17:57 61.84442 -7.29840 3990 ft 238 kts 118°
2026-04-21 17:57 61.83635 -7.26794 3994 ft 237 kts 118°
2026-04-21 17:57 61.82829 -7.23744 4000 ft 236 kts 118°
2026-04-21 17:58 61.82047 -7.20699 3996 ft 235 kts 112°
2026-04-21 17:58 61.81859 -7.17345 3993 ft 231 kts 81°
2026-04-21 17:58 61.82101 -7.13999 4000 ft 230 kts 79°
2026-04-21 17:58 61.82388 -7.10666 3996 ft 230 kts 77°
2026-04-21 17:59 61.82596 -7.08467 4002 ft 230 kts 77°
2026-04-21 17:59 61.82923 -7.05160 3999 ft 230 kts 77°
2026-04-21 17:59 61.83256 -7.01853 3996 ft 230 kts 76°
2026-04-21 17:59 61.83596 -6.98555 3992 ft 230 kts 76°
2026-04-21 18:00 61.83950 -6.95249 4002 ft 229 kts 76°
2026-04-21 18:00 61.84309 -6.91959 4001 ft 229 kts 76°
2026-04-21 18:00 61.84750 -6.88709 3987 ft 228 kts 59°
2026-04-21 18:00 61.85875 -6.86587 4007 ft 217 kts 20°
2026-04-21 18:01 61.87290 -6.85708 4004 ft 207 kts 11°
2026-04-21 18:01 61.88686 -6.85324 3999 ft 198 kts 357°
2026-04-21 18:01 61.90028 -6.85651 4013 ft 191 kts 349°
2026-04-21 18:01 61.91335 -6.86171 4000 ft 190 kts 348°
2026-04-21 18:02 61.92610 -6.86708 3998 ft 180 kts 348°
2026-04-21 18:02 61.93826 -6.87219 4005 ft 176 kts 348°
2026-04-21 18:02 61.95023 -6.87719 4008 ft 182 kts 348°
2026-04-21 18:02 61.96270 -6.88417 3996 ft 184 kts 329°
2026-04-21 18:03 61.97092 -6.90394 4020 ft 180 kts 302°
2026-04-21 18:03 61.97712 -6.92675 4020 ft 181 kts 299°
2026-04-21 18:03 61.98387 -6.94965 3862 ft 189 kts 305°
2026-04-21 18:03 61.99001 -6.97365 3627 ft 174 kts 296°
2026-04-21 18:04 61.99500 -6.99726 3408 ft 169 kts 295°
2026-04-21 18:04 61.99963 -7.01904 3204 ft 156 kts 296°
2026-04-21 18:04 62.00401 -7.03839 2977 ft 138 kts 297°
2026-04-21 18:04 62.00840 -7.05634 2757 ft 138 kts 298°
2026-04-21 18:05 62.01288 -7.07440 2533 ft 138 kts 298°
2026-04-21 18:05 62.01736 -7.09252 2321 ft 139 kts 298°
2026-04-21 18:05 62.02192 -7.11069 2101 ft 139 kts 299°
2026-04-21 18:05 62.02650 -7.12882 1881 ft 139 kts 298°
2026-04-21 18:06 62.03096 -7.14677 1672 ft 139 kts 298°
2026-04-21 18:06 62.03548 -7.16497 1451 ft 139 kts 298°
2026-04-21 18:06 62.04003 -7.18320 1262 ft 140 kts 298°
2026-04-21 18:06 62.04461 -7.20160 1037 ft 141 kts 298°
2026-04-21 18:07 62.04922 -7.22008 805 ft 141 kts 298°
2026-04-21 18:07 62.05382 -7.23865 578 ft 142 kts 298°
2026-04-21 18:07 62.05862 -7.25735 316 ft 143 kts 299°
2026-04-21 18:07 62.06271 -7.27309 280 ft 99 kts 301°
2026-04-21 18:08 62.06449 -7.28128 291 ft 12 kts 265°
2026-04-21 18:08 62.06448 -7.28139 287 ft 0 kts 258°
2026-04-21 18:08 62.06448 -7.28140 287 ft 0 kts 273°
2026-04-21 18:08 62.06448 -7.28142 287 ft 0 kts 301°
2026-04-21 18:09 62.06463 -7.28157 291 ft 7 kts 345°
2026-04-21 18:09 62.06523 -7.28127 288 ft 11 kts 22°
2026-04-21 18:09 62.06566 -7.28099 286 ft 0 kts
2026-04-21 18:10 62.06576 -7.28096 291 ft 2 kts 10°
2026-04-21 18:10 62.06591 -7.28089 287 ft 2 kts 10°
2026-04-21 18:10 62.06610 -7.28087 290 ft 4 kts
2026-04-21 18:11 62.06653 -7.28090 290 ft 7 kts 341°
2026-04-21 18:11 62.06702 -7.28068 287 ft 8 kts 47°
2026-04-21 18:11 62.06711 -7.28028 287 ft 0 kts 75°